Race Results for
Wards Ferry Road Race
Sonora, CA
(Event Information)
View By:
Road Race on 03/27/2010

Note: Ranking points are NOT upgrade points. An explanation of ranking points can be found here.


Men - Cat 5

 Place Points NameCity, StateTime USAC #BibTeam
1S.p. KNOPS   00:00:00.00  507 
2500.17Justin Fahnestock   Englewood, CO00:00:00.00 304369  516 
3503.16SAMMY TRUJILLO   Rancho Cordova, CA00:00:00.00 286935  541 
4506.15Neema Assemi   Fresno, CA00:00:00.00 306675  510 Sierra Pacific Racing
5509.14Tony Cannizzo   Goleta, CA00:00:00.00 316810  512 
6512.13Erik Nelson   Roseville, CA00:00:00.00 302958  530 Kinetic Cycles
7515.12Kevin Comerford   Livermore, CA00:00:00.00 158585  513 Eden Bicycles
8518.11Owen Ransom   Davis, CA00:00:00.00 294967  535 Victory Velo
9521.10Will Masterman   Martinez, CA00:00:00.00 306981  526 
10Gavin SCOTT   00:00:00.00  537 
11527.08Matthew Johnston   Merced, CA00:00:00.00 304638  523 Team Mason Thomas
12Chris NELSON   00:00:00.00  528 
13533.06Nicholas Sosa   Santa Cruz, CA00:00:00.00 305618  539 
14536.05Ron Rawson   Orinda, CA00:00:00.00 306491  536 
15539.04Joe Pace   Tahoe City, CA00:00:00.00 292942  532 Truckee Bicycle Team
16542.03Ken McNeil   San Jose, CA00:00:00.00 307657  527 
17Chris CAGUNGUN   00:00:00.00  511 
18548.01ERIC HOUSTON   Antelope, CA00:00:00.00 284959  522 KINETIC CYCLE
19551.00Lance Loveday   Auburn, CA00:00:00.00 305459  524 Victory Velo
20553.99Gregory Hinge   Reno, NV00:00:00.00 304223  521 
21556.98Gerrit Wesseling   Truckee, CA00:00:00.00 310084  543 
22559.97Vitaly Gashpar   San Francisco, CA00:00:00.00 273905  518 Colavita Chicagoland
23562.96Gilbert Tarin   Knightsen, CA00:00:00.00 252241  540 Taleo Racing
24Dave HAYS   00:00:00.00  520 
25George NELSON   00:00:00.00  529 
26571.93Jawad Yousofi   Livermore, CA00:00:00.00 306048  544 Taleo Racing
27574.92Kurt Freytag   Oakland, CA00:00:00.00 303914  517 Evergreen Power
28577.91Dennis Pellissier   Merced, CA00:00:00.00 307827  533 Team Mason Thomas
29580.90Carlos Perez Gautrin   San Diego, CA00:00:00.00 307176  534 SJBC
30583.89Clay Dossa   Auburn, CA00:00:00.00 303734  597 Victory Velo/ProActive Persona
31Barry ELTING   00:00:00.00  515 Golden Chain Cyclists
32589.87Timothy Turnbull   Castroville, CA00:00:00.00 309759  542 los gatos bicycle racing club
DNSBrandon Doolan   Lodi, CA00:00:00.00 304254  514 n/a
DNSNick Massarella   Oakhurst, CA00:00:00.00 306412  525 
DNSTroy Soares   Auburn, CA00:00:00.00 129658  538 Victory Velo/ProActive Persona
DNSRafael ORTIZ   00:00:00.00  531 
DNPJONATHON GRABEAL   Redding, CA00:00:00.00 305454  519 

Men - Cat 4

 Place Points NameCity, StateTime USAC #BibTeam
1483.08Matt Paliughi   Fresno, CA00:00:00.00 300085  446 Sierra Pacific Racing
2487.01Red Felix   Antioch, CA00:00:00.00 158295  406 
3490.94Josh Felder   Menlo Park, CA00:00:00.00 292894  429 Form Fitness
4494.87kevin leong   Oakland, CA00:00:00.00 303230  427 Unattached
5498.80Michael Painter   Chico Ca00:00:00.00 289184  419 Chico Corsa Cycling Club
6502.73Ryan Price   Santa Rosa, CA00:00:00.00 267121  421 NA
7506.66Christopher Barker   Rancho Cordova, CA00:00:00.00 196545  402 Rio Strada Racing
8510.59Josh Keel   Morgan Hill, CA00:00:00.00 194966  413 Rio Strada Racing
9514.52Jason Hanchett   Albany, CA00:00:00.00 255669  410 Berkeley Bicycle Club (BBC)
10518.45David Bangor   San Francisco, CA00:00:00.00 306411  401 Chica Sexy
11522.38Michael Deza   Daly City, CA00:00:00.00 283359  405 Taleo Racing
12526.31Craig Larsen   Santa Clara, CA00:00:00.00 65413  415 Monta Vista Velo
13530.24Barrett Ausman   San Jose, CA00:00:00.00 186327  400 Webcor/Alto Velo
14534.17Jason Ziegenhirt   Grass Valley, CA00:00:00.00 284690  426 Team Chico
15538.10Keven Bricknell   San Francisco, CA00:00:00.00 253261  447 Fusion Sport USA
16542.03Alex Tellez   Oakland, CA00:00:00.00 305003  428 Berkeley Bicycle Club (BBC)
17545.96Joseph Ison   San Francisco, CA00:00:00.00 302419  449 Unattached
18549.89Ivan Poddubnyy   San Jose, CA00:00:00.00 266310  420 Webcor/AltoVelo
19553.82Whitney DeBoice   Rancho Cordova, CA00:00:00.00 209192  404 Team City Sacramento
20557.75Kevin Tufts   Cameron Park, CA00:00:00.00 243434  425 Bicycle Planet
21561.68Michael Heywood   San Francisco, CA00:00:00.00 268236  411 Kovarus / ABTA
22565.61Daniel Lebson   Folsom, CA00:00:00.00 295237  416 Rio Strada Racing
23569.54Anthony Justman   San Francisco, CA00:00:00.00 60882  412 
24573.47thomas hammond   Santa Rosa, CA00:00:00.00 290911  408 
25577.40Sean Dail   Stockton, CA00:00:00.00 214308  403 William Cycling
DNSGary Keno   Clovis, CA00:00:00.00 108816  414 Vapor racing
DNSJoe MILLER   00:00:00.00  417 
DNSDouglas Reid   Seattle, WA00:00:00.00 68272  422 Veloce Racing
DNSAdrian Tieslau   Kings Beach, CA00:00:00.00 271946  424 
DNPAdam Garcia   San Francisco, CA00:00:00.00 286990  407 Taleo Racing
DNPJames Hanacek   Fair Oaks, CA00:00:00.00 196180  409 Rio Strada Racing
DNPMatthew Muegge   Pittsburg, CA00:00:00.00 287841  418 Team Roaring Mouse
DNPNicholas Peairs   San Anselmo, CA00:00:00.00 289571  448 UCSB

Men - Cat 4 - Master - 35-99

 Place Points NameCity, StateTime USAC #BibTeam
1433.61Cameron Birky   Pleasant Hill, CA00:00:00.00 285950  755 Wells Fargo Racing Team
2437.96Chris Becker   Orinda, CA00:00:00.00 287692  753 Taleo Racing
3442.31Erle Martin   Saint Helena, CA00:00:00.00 210062  774 Cal Giant
4446.66Allen Jones   Dublin, CA00:00:00.00 255750  768 Wells Fargo Racing Team
5451.01Todd Peterson   Amador City, CA00:00:00.00 277762  780 Body Concepts
6455.36Rusk Whipps   Petaluma, CA00:00:00.00 266460  794 Cal Giant
7459.71emmanuel billaud   San Mateo, CA00:00:00.00 289763  754 Taleo Racing
8464.06Joe Miller   Benicia, CA00:00:00.00 269479  776 Taleo Racing
9468.41Scott Wienker   Davis, CA00:00:00.00 290904  795 Davis Bike Club
10472.76Terence Potter   Oakland, CA00:00:00.00 250905  781 Berkeley Bicycle Club (BBC)
11477.11Ethan Kutzscher   Moraga, CA00:00:00.00 270460  770 Wells Fargo Racing Team
12481.46Kevin ODonnell   Greenbrae, CA00:00:00.00 242028  779 Taleo Racing
13485.81Denin Sahovic   Sunnyvale, CA00:00:00.00 271126  783 Los Gatos
14490.16Gregg Marioni   San Anselmo, CA00:00:00.00 22517  773 California Giant Cycling
15494.51Rob Leever   Citrus Heights, CA00:00:00.00 267651  771 Rio Strada Racing
16498.86John Swift   San Jose, CA00:00:00.00 273816  789 Evergreen Cycling
17503.21Christopher Coble   Concord, CA00:00:00.00 254754  757 Taleo Racing
18507.56Ron Nelson   Martinez, CA00:00:00.00 257207  778 NA
19511.91Brad Crow   Danville, CA00:00:00.00 271159  760 Wells Fargo Racing Team
20516.26David Colyer   Novato, CA00:00:00.00 259783  758 Taleo Racing
21520.61Frank Shoemaker   Folsom, CA00:00:00.00 32519  785 Bicycle Planet
22524.96Lance Haag   Fairfax, CA00:00:00.00 300056  766 ThirstyBear Cycling
23529.31Steve Cooke   Carson City, NV00:00:00.00 286931  759 Body Concepts
24533.66Richard Gelsi-Medeot   Novato, CA00:00:00.00 225191  765 California/Giant/Cycling
25538.01Randy Floyd   Newcastle, CA00:00:00.00 90079  763 Body Concepts
26542.36Russell McCrary   San Ramon, CA00:00:00.00 253276  775 California Giant Cycling
27546.71Stuart Bratton   Folsom, CA00:00:00.00 286850  756 Bicycle Planet
28551.06Allen Wulczynski   San Jose, CA00:00:00.00 271874  797 SJBC
29555.41Raj Singh   San Jose, CA00:00:00.00 265000  787 SJBC
30559.76Randy Volkmar   S Lake Tahoe, CA00:00:00.00 36779  792 Body Concepts
31564.11Rick Loveridge   El Dorado Hills, CA00:00:00.00 223135  772 Team Revolutions
32568.46Alan Weatherall   San Jose, CA00:00:00.00 233934  793 SJBC
33572.81John Hawkins   Los Osos, CA00:00:00.00 45436  767 SLO Nexus
34577.16David Woodhouse   Lincoln, CA00:00:00.00 272962  796 Victory Velo
35581.51Barney Drake   Reno, NV00:00:00.00 233995  761 Truckee Bicyle Team
36585.86Peter Aughney   Novato, CA00:00:00.00 272800  750 Taleo Racing
DNSdaniel barrows   Fresno, CA00:00:00.00 257598  751 sierra pacific racing
DNSSean Beck   Modesto, CA00:00:00.00 130271  752 Fun Sport Bikes
DNSdave dunn   Walnut Creek, CA00:00:00.00 303907  762 Wells Fargo Racing Team
DNSBarry Freifeld   Oakland, CA00:00:00.00 51650  764 SF Sport & Spine PT Racing
DNSHussein Saffouri   Piedmont, CA00:00:00.00 41848  782 Berkeley Bike Club (BBC)
DNSLouis Sandoval   San Pablo, CA00:00:00.00 50989  784 Berkeley Bicycle Club
DNSMichael Simos   Redwood City, CA00:00:00.00 271296  786 Los Gatos
DNSBill Vaughan   Auburn, CA00:00:00.00 283140  790 Victory Velo
DNSGerman Villa   San Lorenzo, CA00:00:00.00 224232  791 Berkeley Bicycle Club (BBC)
DNPKayden Kelly   Auburn, CA00:00:00.00 101369  769 
DNPVictor Mirzayan   Fresno, CA00:00:00.00 262853  777 Sierra Pacific Racing

Men - Cat 3

 Place Points NameCity, StateTime USAC #BibTeam
1364.01Scott Walnofer   Springdale, AR00:00:00.00 203030  898 Snapple Cycling Team
2377.48Brian Zimny   Sacramento, CA00:00:00.00 61117  899 Team City Sacramento
3390.95Steve Christiansen   Fair Oaks, CA00:00:00.00 221057  882 Rio Strada Racing
4404.42Michael Grundmann   Sunnyvale, CA00:00:00.00 182738  807 Webcor/Alto Velo
5417.89Geoffrey Davis   San Luis Obispo, CA00:00:00.00 205688  884 ArtsCyclery.com/Wild Horse Win
6431.36Christopher Flanagan   San Francisco, CA00:00:00.00 276118  885 All Sport-Team Swift
7444.83Jan Huptych   San Mateo, CA00:00:00.00 86954  811 ThirstyBear Cycling
8458.30James Stout   Evesham (uk) 00:00:00.00 286392  897 swamis
9471.77Joel Pennington   Santa Monica, CA00:00:00.00 280218  896 Thirsty Bear Cycling
10485.24Jared Ives   Santa Rosa, CA00:00:00.00 207956  888 Christian Cycling/Hammer Nutri
11498.71Bryan Buck   San Jose, CA00:00:00.00 141246  880 Webcor/Alto Velo
12512.18Scott Peifer   Granite Bay, CA00:00:00.00 265877  865 Vitamin Water / Folsom Bike
13525.65David Mesa   Crockett, CA00:00:00.00 243257  890 squeky chains/ chica sexy
14539.12Todd Studenicka   San Jose, CA00:00:00.00 34489  808 SJBC
15552.59Duane Coughlan   Corte Madera, CA00:00:00.00 289093  883 ThirstyBear Cycling
16566.06Phillip Lovaglio   Hollister, CA00:00:00.00 90122  812 Swiss American Racing Team
DNSTroy Newton   Santa Rosa, CA00:00:00.00 190533  893 Kovarus/ABTA Racing
DNSChris Parrish   Syracuse, NY00:00:00.00 77867  894 
DNPRamsey Etchison   Truckee, CA00:00:00.00 251486  864 Cyclepaths/Wild Cherries Racin
DNPMichael Vella   Saratoga, CA00:00:00.00 167402  881 Webcor/Alto Velo
DNPdonald hahn   Reno, NV00:00:00.00 280149  886 NA
DNPPetro Hizalev   Palo Alto00:00:00.00 224168  887 Webcor/Alto Velo
DNPEric LaFranchi   Calistoga, CA00:00:00.00 199575  889 Thirsty Bear Cycling
DNPJesse Miller-Smith   Truckee, CA00:00:00.00 283869  891 Cyclepaths Wild Cherries
DNPAlvaro Mosquera   Sacramento, CA00:00:00.00 236809  892 Team Bicycle Plus/Sierra Nevad

Men - Pro/Cat 1/2

 Place Points NameCity, StateTime USAC #BibTeam
1255.36Kevin Klein   Menlo Park, CA00:00:00.00 47388  917 Yahoo! Cycling Team
2277.65Michael Taylor   Reno, NV00:00:00.00 66806  918 Minimax
3299.94Hendrik Pohl   San Francisco, CA00:00:00.00 207753  933 Fusion Sport USA
4322.23Brian Bosch   Fresno, CA00:00:00.00 40703  911 Yahoo! Cycling Team
5344.52Mike Gratz   Pleasant Hill, CA00:00:00.00 256787  919 Taleo Racing
6366.81Chris Turner   Los Altos, CA00:00:00.00 253101  914 Above Category Racing
7389.10Nathan Freed   Tahoe City, CA00:00:00.00 86484  912 Team Clif Bar
8411.39Bo Hebenstreit   Campbell, CA00:00:00.00 196276  935 Webcor/Alto Velo
9433.68Ed Richardson (1 - Cat2)   Livermore, CA00:00:00.00 272019  936 Unattached
10455.97Andrew Demas   Los Altos, CA00:00:00.00 208643  920 Third Pillar
11478.26Nathan Parks   Livermore, CA00:00:00.00 51773  916 Morgan Stanley Smith Barney/Sp
12500.55Peter Armstrong (2 - Cat2)   Lafayette, CA00:00:00.00 279806  915 Taleo Racing
13522.84Patrick Zahn   Penngrove, CA00:00:00.00 142750  921 Team NorCal Bike Sport

Men - Cat 1/2/3 - Master - 35-99

 Place Points NameCity, StateTime USAC #BibTeam
1276.58Nick Theobald   Burlingame, CA00:00:00.00 35297  88 SAFEWAY/Bicycles Plus/PureRed
2288.79Jonathan Eropkin   Fresno, CA00:00:00.00 197844  85 SAFEWAY/Bicycles Plus/PureRed
3301.00Dan Martin   Pleasanton, CA00:00:00.00 179386  87 SAFEWAY/Bicycles Plus/PureRed
4313.21Robert Pasco   Belmont, CA00:00:00.00 136970  82 SAFEWAY/Bicycles Plus/PureRed
5325.42Kevin Kennedy (1 - Cat3)   Danville, CA00:00:00.00 264239  91 Taleo Racing
6337.63Blake Reed   Grover Beach, CA00:00:00.00 29369  54 ArtsCyclery.com/Wild Horse Win
7349.84Jeff Eisenberg (1 - Cat2)   San Francisco, CA00:00:00.00 231993  89 Fusion Sport
8362.05Norman Zellers   El Segundo, CA00:00:00.00 140740  81 Kinetic Cycles/GBI
9374.26David Levine   Alamo, CA00:00:00.00 145573  52 Taleo Racing
10386.47Daryl Spano   Fremont, CA00:00:00.00 146243  95 SJBC
11398.68Lucas Paz   Richmond, CA00:00:00.00 150305  53 East Bay Velo Club
12410.89Greg McQuaid   San Francisco, CA00:00:00.00 249424  92 SJBC
13423.10Joshua Hughes   Sacramento, CA00:00:00.00 123925  80 Victory Velo/ProActive Persona
14435.31Jay Sturges   Sacramento, CA00:00:00.00 43151  79 Sacramento Golden Wheelmen
15447.52David Jones   Danville, CA00:00:00.00 277251  90 Wells Fargo Racing Team
16459.73Jeff Albert   Reno, NV00:00:00.00 235063  55 Minimax
17471.94Andrew Robertson   Fresno, CA00:00:00.00 169555  86 Rubber Soul/CSC Racing Team
18484.15Chris Wire   Saratoga, CA00:00:00.00 152176  99 SJBC
19496.36Paul Carter   Pleasant Hill, CA00:00:00.00 58642  83 Wells Fargo Racing Team
20508.57Gus Platis   W Sacramento, CA00:00:00.00 40616  94 Team City
21520.78Leslie Oglesby   Salinas, CA00:00:00.00 53661  93 Joselyn's Bicycles
22532.99Jane Despas   Menlo Park, CA00:00:00.00 105201  57 Yahoo Cycling Team
23545.20David Tu   Redwood City, CA00:00:00.00 36009  97 Truckee Bicycle Team
DNSJohn Trefethen   Danville, CA00:00:00.00 212376  96 HDR Racing p/b Lombardi Sports
DNPKyle Glerum   Burlingame, CA00:00:00.00 195470  59 SAFEWAY/Bicycles Plus/PureRed
DNPJeff Horner (Cat3)   Walnut Creek, CA00:00:00.00 219308  84 Wells Fargo Racing Team

Women - Cat 1/2/3

 Place Points NameCity, StateTime USAC #BibTeam
1456.00Nicole Dolney (1 - Cat2)   Sacramento, CA00:00:00.00 287219  131 Touchstone Climbing
2523.00Francesca Barsamian   Oakland, CA00:00:00.00 208596  149 Wells Fargo Racing Team
3590.00Jennifer Kalich   Aromas00:00:00.00 297754  148 Joselyns

Report missing or incorrect license numbers

Volkswagen
Sierra NevadaBonk BreakerSpyShimanoUSACDF
UCI USA Cycling is the official governing body for all disciplines of competitive cycling in the United States. The 501c3, membership-based organization aims both to achieve sustained success in international cycling competition and to grow competitive cycling in America while delivering an exceptional customer experience.
View Children's Online Privacy Protection Policy
US Olympic Committee